"Pseudo-MPEC" for P21BYiC

Created 2022 Nov 26 13:22:23 UT using Find_Orb

Click here for an explanation of pseudo-MPECs

 
 Astrometry: 
     P21BYiC* C2022 11 23VQVSRijcTcblGf\o/94tsH^PoDNB;_sr8%r[o5j2w\Z=s)MSB;MoF52
     P21BYiC  C2022 11 23=e2dNT%3'w%,I;V^+h5ASn+ZGAstrometry'ONwl:wX$K2)99[y*F52
     P21BYiC  C2022 11 233UirxX:1b`E0gt8d@R;x0Ad:ZWuRWY@fH8d',?lo%8Ylfq1-JL_4F52
     P21BYiC  C2022 11 23GJN['#h8].%redacted;_FC@SbgHgY'4ERE,VKlkMps.Qwvj4*IMF51
     P21BYiC  C2022 11 23Qln^click/5,vherengd9s/P5FAb:pmkG7YQ:-\-U@DLl8mWQg@+F51
     P21BYiC KC2022 11 24.36115308 14 35.120+13 04 23.23   ~BO9Mx21.63GVNEOCPI52
     P21BYiC KC2022 11 24.36481408 14 34.609+13 04 39.32   ~BO9M 22.21GVNEOCPI52
     P21BYiC KC2022 11 24.36664908 14 34.433+13 04 48.58   ~BO9M 21.20GVNEOCPI52
     P21BYiC KC2022 11 26.37158608 12 15.480+15 40 08.30   ~BQ9b 21.80GVNEOCPV06
     P21BYiC KC2022 11 26.37320808 12 15.410+15 40 15.90   ~BQ9b 22.71GVNEOCPV06
     P21BYiC KC2022 11 26.37482908 12 15.220+15 40 22.70   ~BQ9b 22.07GVNEOCPV06
     P21BYiC KC2022 11 26.37644908 12 15.100+15 40 30.70   ~BQ9b 22.04GVNEOCPV06
     P21BYiC KC2022 11 26q/forQ8Km,B;RCR1tmrWT'wJK$pcKMolHcW,U]yb%explanationH21
     P21BYiC KC2022 11 26::G%vnR-HY+r_ch4pK[rD)2f1EVGM5DAgQC!6o:S]B-h#%nG/Z!OH21

Station data:
(F51) Pan-STARRS 1, Haleakala  (N20.707234 W156.255910)  US/Hawaii.
   Observers J. Bulger, T. Lowe, A. Schultz, M. Willman. Measurers K.
   Chambers, S. Chastel, T. de Boer, L. Denneau, J. Fairlamb, H. Flewelling,
   M. Huber, C.-C. Lin, E. Magnier, Y. Ramanjooloo, R. Wainscoat, R. Weryk.
   1.8-m Ritchey-Chrétien + CCD.
(F52) Pan-STARRS 2, Haleakala  (N20.707382 W156.255910)  US/Hawaii.
   Observers J. Bulger, T. Dukes, T. Lowe, A. Schultz, M. Willman. Measurers
   K. Chambers, S. Chastel, T. de Boer, L. Denneau, J. Fairlamb, H.
   Flewelling, M. Huber, C.-C. Lin, E. Magnier, Y. Ramanjooloo, R. Wainscoat,
   R. Weryk. 1.8-m Ritchey-Chrétien + CCD.
(H21) Astronomical Research Observatory, Westfield  (N39.483054 W87.968270)
   US/Illinois.  Observer R. Holmes. Measurers S. Foglia, L. Buzzi, T.
   Linder, R. Holmes. 0.76-m f/3.0 astrograph + CCD0.81-m f/4.0 astrograph +
   CCD0.61-m f/4.5 astrograph + CCD0.40-m f/5.32 astrograph + CCD.
(I52) Steward Observatory, Mt. Lemmon Station  (N32.442544 W110.788920)
   US/Arizona.  Observers T. A. Pruyne, B. M. Africano, E. J. Christensen, G.
   A. Farneth, D. C. Fuls, A. R. Gibbs, A. D. Grauer, H. Gröller, J. A.
   Johnson, R. A. Kowalski, S. M. Larson, G. J. Leonard, D. Rankin, R. L.
   Seaman, F. C. Shelly, K. W. Wierzchoś. 1.0-m reflector + CCD.
(V06) Catalina Sky Survey-Kuiper  (N32.416844 W110.732550)  US/Arizona.
   Observers T. A. Pruyne, B. M. Africano, E. J. Christensen, G. A. Farneth,
   D. C. Fuls, A. R. Gibbs, A. D. Grauer, H. Gröller, J. A. Johnson, R. A.
   Kowalski, S. M. Larson, G. J. Leonard, D. Rankin, R. L. Seaman, F. C.
   Shelly, K. W. Wierzchoś. 1.55-m reflector + CCD.

Orbital elements:  P21BYiC
   Perihelion 2022 Oct 16.60752 +/- 0.0464 TT = 14:34:49 (JD 2459869.10752)
Epoch 2022 Nov 26.0 TT = JDT 2459909.5   Earth MOID: 0.0582   Ma: 0.0997
M  15.74615586 +/- 0.24             (J2000 ecliptic)          AutoNEOCP
n   0.38982891 +/- 0.00619          Peri.  308.31019 +/- 0.08
a   1.85589478 +/- 0.019            Node    74.70695 +/- 0.06
e   0.4806536 +/- 0.00561           Incl.    9.14283 +/- 0.09
P   2.53/923.46d           H 24.0   G  0.15   U  9.3
q 0.96385222 +/- 0.000279    Q 2.74793734 +/- 0.0382
13 of 14 observations 2022 Nov. 23-26; mean residual 0".28
Residuals in arcseconds: 
221123 F52  .36+  .05+    221124 I52( 3.1+  1.4+)   221126 V06  .02-  .55-    
221123 F52  .31-  .35+    221124 I52  .01-  .20-    221126 V06  .35+  .09+    
221123 F52  .13+  .28-    221124 I52  .39-  .17+    221126 H21  .20-  .13+    
221123 F51  .07+  .10-    221126 V06  .47-  .22-    221126 H21  .08-  .39+    
221123 F51  .02+  .03+    221126 V06  .62+  .01+    

Ephemerides (geocentric):
Date (UTC) HH   RA             Dec           delta  r     elong  mag " sig PA
---- --------  ------------   ------------  ------ ------ -----  --- --------
2022 11 26 13  08 12 01.223   +15 53 09.44  .15851 1.0797 122.2 22.1 .289 132
2022 11 26 14  08 11 58.166   +15 56 15.65  .15864 1.0800 122.2 22.1 .286 131
2022 11 26 15  08 11 55.102   +15 59 21.60  .15876 1.0802 122.3 22.1 .284 130
2022 11 26 16  08 11 52.033   +16 02 27.31  .15888 1.0804 122.4 22.1 .281 128
2022 11 26 17  08 11 48.958   +16 05 32.75  .15901 1.0806 122.4 22.1 .279 126
2022 11 26 18  08 11 45.876   +16 08 37.94  .15913 1.0808 122.5 22.1 .277 125
2022 11 26 19  08 11 42.789   +16 11 42.88  .15925 1.0810 122.6 22.1 .275 123
2022 11 26 20  08 11 39.695   +16 14 47.57  .15938 1.0812 122.6 22.1 .273 121
2022 11 26 21  08 11 36.595   +16 17 52.00  .15950 1.0815 122.7 22.1 .272 119
2022 11 26 22  08 11 33.489   +16 20 56.18  .15962 1.0817 122.8 22.1 .271 117
2022 11 26 23  08 11 30.377   +16 24 00.10  .15975 1.0819 122.8 22.1 .270 115
2022 11 27 00  08 11 27.259   +16 27 03.77  .15987 1.0821 122.9 22.1 .270 113
2022 11 27 01  08 11 24.134   +16 30 07.19  .16000 1.0823 123.0 22.1 .270 111
2022 11 27 02  08 11 21.004   +16 33 10.36  .16012 1.0825 123.0 22.1 .270 109
2022 11 27 03  08 11 17.867   +16 36 13.27  .16025 1.0828 123.1 22.1 .271 107
2022 11 27 04  08 11 14.725   +16 39 15.93  .16037 1.0830 123.2 22.1 .272 105
2022 11 27 05  08 11 11.576   +16 42 18.34  .16050 1.0832 123.2 22.1 .274 102
2022 11 27 06  08 11 08.421   +16 45 20.50  .16062 1.0834 123.3 22.1 .276 100
2022 11 27 07  08 11 05.260   +16 48 22.40  .16075 1.0836 123.4 22.1 .279  98
2022 11 27 08  08 11 02.093   +16 51 24.06  .16087 1.0838 123.4 22.1 .282  96
2022 11 27 09  08 10 58.919   +16 54 25.46  .16100 1.0841 123.5 22.1 .285  93
2022 11 27 10  08 10 55.740   +16 57 26.62  .16112 1.0843 123.6 22.1 .289  91
2022 11 27 11  08 10 52.554   +17 00 27.52  .16125 1.0845 123.6 22.1 .294  89
2022 11 27 12  08 10 49.363   +17 03 28.17  .16138 1.0847 123.7 22.1 .299  87
2022 11 27 13  08 10 46.165   +17 06 28.57  .16150 1.0849 123.8 22.1 .305  85
2022 11 27 14  08 10 42.961   +17 09 28.72  .16163 1.0851 123.8 22.1 .311  83
2022 11 27 15  08 10 39.751   +17 12 28.62  .16176 1.0854 123.9 22.1 .318  81
2022 11 27 16  08 10 36.535   +17 15 28.27  .16188 1.0856 124.0 22.1 .325  79
2022 11 27 17  08 10 33.313   +17 18 27.68  .16201 1.0858 124.0 22.1 .333  77
2022 11 27 18  08 10 30.085   +17 21 26.83  .16214 1.0860 124.1 22.1 .341  75
2022 11 27 19  08 10 26.850   +17 24 25.73  .16226 1.0862 124.2 22.1 .349  74
2022 11 27 20  08 10 23.610   +17 27 24.39  .16239 1.0865 124.2 22.1 .358  72
2022 11 27 21  08 10 20.363   +17 30 22.79  .16252 1.0867 124.3 22.1 .368  71
2022 11 27 22  08 10 17.111   +17 33 20.95  .16265 1.0869 124.4 22.1 .378  69
2022 11 27 23  08 10 13.852   +17 36 18.86  .16277 1.0871 124.4 22.1 .388  68
2022 11 28 00  08 10 10.587   +17 39 16.52  .16290 1.0873 124.5 22.1 .399  66
2022 11 28 01  08 10 07.316   +17 42 13.93  .16303 1.0875 124.6 22.1 .410  65
2022 11 28 02  08 10 04.039   +17 45 11.10  .16316 1.0878 124.6 22.1 .421  64
2022 11 28 03  08 10 00.756   +17 48 08.02  .16329 1.0880 124.7 22.1 .433  62
2022 11 28 04  08 09 57.466   +17 51 04.69  .16341 1.0882 124.8 22.1 .445  61
2022 11 28 05  08 09 54.171   +17 54 01.11  .16354 1.0884 124.8 22.1 .458  60
2022 11 28 06  08 09 50.870   +17 56 57.29  .16367 1.0886 124.9 22.1 .471  59
2022 11 28 07  08 09 47.562   +17 59 53.22  .16380 1.0889 125.0 22.1 .484  58
2022 11 28 08  08 09 44.248   +18 02 48.90  .16393 1.0891 125.0 22.1 .497  57
2022 11 28 09  08 09 40.929   +18 05 44.34  .16406 1.0893 125.1 22.1 .511  56
2022 11 28 10  08 09 37.603   +18 08 39.53  .16419 1.0895 125.2 22.1 .525  55
2022 11 28 11  08 09 34.271   +18 11 34.47  .16432 1.0897 125.2 22.1 .539  54
2022 11 28 12  08 09 30.933   +18 14 29.17  .16445 1.0900 125.3 22.1 .554  54